Location: Poughquag
(41.6090°N, 73.6820°W)
Time: 18:00:57
(UTC-04:00)

OTV 5 (USA 277) - Visible Passes

Search period start: 23 May 2018 00:00
Search period end: 02 June 2018 00:00
Orbit: 308 x 326 km, 54.5° (Epoch: 06 May)

Date Brightness Start Highest point End Pass type
(mag) Time Alt. Az. Time Alt. Az. Time Alt. Az.
28 May ? 04:41:26 10° S 04:43:42 23° SE 04:46:00 10° ENE visible
30 May ? 03:37:50 14° SE 03:38:23 14° SE 03:39:58 10° E visible
31 May ? 03:51:42 29° S 03:52:36 39° SE 03:55:12 10° ENE visible
01 Jun ? 04:05:31 24° WSW 04:06:57 65° NW 04:09:42 10° NE visible
